Domov               UVHVVR             MKGP            O straneh              
ZDRAVSTVENO VARSTVO RASTLIN
  MREŽA AGROMET. POSTAJ
 ► PROGNOSTIČNA OBVESTILA
AGROMETEOROLOŠKI PODATKI -
ARSO
OBVLADOVANJE TVEGANJ ZARADI
NEUGODNIH VREMENSKIH RAZMER
  ► NARAVNE NESREČE
  ► SUŠA/MOČA
  ► NAMAKANJE
  ► ŽLED (gozdarstvo)
KARTOGRAFSKI PRIKAZI
SPLETNE POVEZAVE
PROJEKTI IN PUBLIKACIJE

AGROMETEOROLOŠKA MREŽA: VREMENSKE POSTAJE IN FENOLOŠKA OPAZOVANJA

Pregled podatkov za lokacijo Gabernik-Rogaška, meteorološka postaja 37800

Pregled senzorjev na lokaciji

ID Ime Zadnja
vrednost
Datum in čas
zadnje
spremembe
(Lokalni čas)
Tip
senzorja
1828 Omočenost lista (U) 2 U 27.1.2020 02:00 A730WET
4946 Padavine (mm) 0 mm 27.1.2020 02:00 Generic 0.2 mm
1827 Relativna vlaga 2 m (% RH) 99.93 % RH 27.1.2020 02:00 50YA
1826 Temperatura 2 m (°C) -0.83 °C 27.1.2020 02:00 50YA

Pregled podatkov zadnjih 24 ur

Zap.
št.
Datum in čas
(Centralno
evropski čas)
Gabernik-Rogaška
Omočenost
lista
Padavine Relativna
vlaga
2
m
Temperatura
2
m
1 27.1.2020 02:30
2 27.1.2020 02:00 2 0 99.9 -0.8
3 27.1.2020 01:30 2 0 99.9 -0.9
4 27.1.2020 01:00 3 0 99.9 -1
5 27.1.2020 00:30 6 0 99.9 -1
6 27.1.2020 00:00 5 0 99.9 -1
7 26.1.2020 23:30 4 0 99.9 -0.9
8 26.1.2020 23:00 2 0 99.9 -0.9
9 26.1.2020 22:30 1 0 99.9 -0.8
10 26.1.2020 22:00 1 0 99.9 -0.7
11 26.1.2020 21:30 1 0 99.9 -0.6
12 26.1.2020 21:00 1 0 99.9 -0.6
13 26.1.2020 20:30 0 0 99.9 -0.5
14 26.1.2020 20:00 0 0 99.9 -0.4
15 26.1.2020 19:30 0 0 99.9 -0.3
16 26.1.2020 19:00 0 0 99.9 -0.1
17 26.1.2020 18:30 0 0 99.9 -0.1
18 26.1.2020 18:00 0 0 99.9 0
19 26.1.2020 17:30 0 0 99.9 0.1
20 26.1.2020 17:00 0 0 99.9 0.3
21 26.1.2020 16:30 0 0 99.9 0.4
22 26.1.2020 16:00 0 0 99.9 0.5
23 26.1.2020 15:30 0 0 99.9 1
24 26.1.2020 15:00 0 0 99.9 1.4
25 26.1.2020 14:30 0 0 99.9 1
26 26.1.2020 14:00 0 0 99.9 0.9
27 26.1.2020 13:30 0 0 99.9 1.1
28 26.1.2020 13:00 0 0 99.9 0.3
29 26.1.2020 12:30 2 0 99.9 0.6
30 26.1.2020 12:00 10 0 99.9 0.6
31 26.1.2020 11:30 10 0 99.9 0.4
32 26.1.2020 11:00 10 0 99.9 -0.2
33 26.1.2020 10:30 10 0 99.9 -0.5
34 26.1.2020 10:00 10 0 99.9 -0.8
35 26.1.2020 09:30 10 0 99.9 -1
36 26.1.2020 09:00 7 0 99.9 -1.4
37 26.1.2020 08:30 4 0 99.9 -1.5
38 26.1.2020 08:00 2 0 99.9 -1.7
39 26.1.2020 07:30 2 0 99.9 -1.9
40 26.1.2020 07:00 2 0 99.9 -2
41 26.1.2020 06:30 2 0 99.9 -2
42 26.1.2020 06:00 2 0 99.9 -1.8
43 26.1.2020 05:30 2 0 99.9 -1.9
44 26.1.2020 05:00 2 0 99.9 -1.9
45 26.1.2020 04:30 2 0 99.9 -1.9
46 26.1.2020 04:00 1 0 99.9 -2
47 26.1.2020 03:30 1 0 99.9 -2.1
48 26.1.2020 03:00 2 0 99.9 -1.8
© 2011 Ministrstvo za kmetijstvo, gozdarstvo in prehrano. Vse pravice pridržane.